Temp
-8 -8 -8 -8 -8 -8 -9 -9 -9 -9 -9 -9 -9 -9 -9 -9 -9 -9 -9 -9 -9 -9 -9 -9 -9 -9 -9 -9 -9 -9 -9 -10 -10 -9 -9 -9 -8 -8 -7 -7 -7 -7 -8 -8 -8
-8 -8 -8 -8 -8 -8 -8 -8 -8 -9 -9 -9 -9 -9 -9 -9 -9 -9 -9 -9 -9 -9 -9 -9 -9 -9 -9 -9 -9 -9 -9 -9 -9 -9 -8 -8 -7 -7 -7 -7 -7 -8 -8 -8 -8
-8 -8 -8 -8 -8 -8 -8 -8 -8 -8 -8 -9 -9 -9 -9 -9 -9 -9 -9 -9 -9 -9 -9 -9 -9 -9 -9 -9 -9 -9 -9 -9 -9 -8 -8 -7 -7 -7 -7 -7 -7 -8 -8 -8 -8
-8 -8 -8 -8 -8 -8 -8 -8 -8 -8 -8 -8 -8 -8 -8 -8 -9 -9 -9 -9 -9 -9 -9 -9 -9 -9 -9 -9 -9 -9 -9 -9 -8 -8 -8 -7 -7 -7 -7 -7 -7 -8 -8 -8 -8
-8 -8 -8 -8 -8 -8 -8 -8 -8 -8 -8 -8 -8 -8 -8 -8 -8 -8 -8 -8 -9 -9 -8 -8 -9 -9 -9 -9 -9 -8 -8 -8 -8 -8 -8 -7 -7 -7 -7 -7 -7 -8 -8 -8 -8
-8 -8 -8 -8 -8 -8 -8 -8 -8 -8 -8 -8 -8 -8 -8 -8 -8 -8 -8 -8 -8 -8 -8 -8 -8 -9 -9 -9 -9 -8 -8 -8 -8 -8 -7 -7 -7 -7 -7 -7 -8 -8 -8 -8 -8
-7 -8 -8 -8 -8 -8 -8 -8 -8 -8 -8 -7 -8 -8 -8 -8 -8 -8 -8 -8 -8 -8 -8 -8 -8 -8 -8 -9 -9 -8 -8 -8 -8 -8 -8 -8 -8 -8 -8 -8 -8 -8 -8 -8 -9
-7 -7 -7 -8 -8 -8 -8 -7 -8 -8 -8 -7 -8 -8 -8 -8 -8 -8 -8 -8 -8 -8 -8 -8 -8 -8 -8 -8 -8 -8 -8 -8 -8 -8 -8 -8 -8 -8 -8 -8 -8 -8 -8 -9 -9
-6 -6 -7 -7 -8 -8 -8 -8 -7 -7 -7 -7 -7 -7 -7 -7 -8 -8 -8 -8 -8 -8 -8 -8 -8 -8 -8 -8 -8 -8 -8 -8 -8 -8 -8 -8 -8 -8 -8 -8 -8 -8 -8 -8 -9
-5 -6 -6 -6 -7 -7 -7 -8 -7 -7 -7 -7 -7 -7 -7 -7 -7 -7 -7 -7 -7 -7 -8 -8 -8 -8 -8 -8 -8 -8 -8 -8 -8 -8 -8 -8 -8 -8 -8 -8 -8 -8 -8 -8 -8
-5 -5 -5 -6 -6 -6 -6 -6 -6 -7 -7 -7 -7 -7 -7 -7 -7 -7 -7 -7 -7 -7 -7 -7 -7 -7 -7 -7 -8 -8 -8 -8 -8 -8 -8 -8 -8 -8 -8 -8 -8 -8 -8 -8 -8
-5 -5 -5 -5 -5 -5 -6 -5 -6 -6 -6 -6 -6 -6 -6 -7 -6 -7 -7 -7 -7 -7 -7 -7 -7 -7 -7 -7 -7 -7 -7 -7 -7 -8 -8 -8 -8 -8 -8 -8 -8 -8 -8 -8 -8
-5 -5 -5 -5 -5 -5 -5 -5 -5 -5 -5 -5 -5 -5 -5 -6 -6 -6 -6 -6 -6 -6 -6 -6 -6 -6 -6 -6 -7 -7 -7 -7 -7 -7 -7 -7 -8 -8 -8 -8 -8 -8 -8 -8 -9
-5 -5 -5 -5 -5 -5 -5 -5 -5 -5 -5 -5 -5 -5 -5 -5 -5 -5 -5 -5 -6 -6 -6 -6 -6 -6 -6 -6 -6 -6 -6 -6 -6 -6 -7 -7 -7 -7 -7 -7 -8 -8 -8 -8 -9
-5 -5 -5 -4 -5 -5 -5 -5 -5 -5 -5 -5 -5 -5 -5 -5 -5 -5 -5 -5 -5 -5 -6 -6 -6 -6 -6 -6 -6 -6 -6 -6 -6 -6 -6 -7 -7 -7 -7 -7 -7 -7 -8 -8 -8
-5 -5 -5 -5 -5 -5 -5 -5 -5 -5 -5 -5 -5 -5 -5 -5 -5 -5 -5 -5 -5 -5 -5 -5 -6 -6 -6 -6 -6 -6 -6 -6 -6 -6 -6 -7 -7 -7 -7 -7 -7 -7 -7 -8 -8
-5 -5 -5 -5 -5 -5 -5 -5 -5 -5 -5 -5 -5 -5 -5 -5 -5 -5 -5 -5 -5 -5 -5 -5 -5 -5 -5 -6 -6 -6 -6 -6 -6 -6 -7 -7 -7 -7 -7 -7 -7 -7 -7 -7 -8
-5 -6 -6 -5 -5 -5 -5 -5 -5 -5 -5 -5 -5 -5 -5 -5 -5 -5 -5 -5 -5 -5 -5 -5 -5 -6 -6 -6 -6 -6 -6 -6 -6 -6 -6 -7 -7 -7 -7 -7 -7 -7 -7 -7 -7
-5 -6 -6 -6 -6 -5 -5 -5 -5 -5 -5 -5 -5 -5 -5 -5 -5 -5 -5 -5 -5 -6 -5 -6 -6 -6 -6 -6 -6 -6 -6 -6 -6 -6 -6 -7 -7 -7 -7 -7 -7 -7 -7 -8 -8
-6 -6 -6 -6 -6 -6 -5 -5 -5 -5 -5 -5 -5 -5 -5 -5 -5 -5 -5 -6 -6 -6 -6 -6 -6 -6 -6 -6 -6 -6 -7 -7 -7 -7 -7 -7 -7 -7 -7 -7 -7 -7 -8 -7 -8
-5 -5 -6 -5 -5 -5 -5 -6 -5 -5 -5 -5 -5 -5 -5 -6 -6 -6 -6 -6 -6 -6 -6 -6 -6 -6 -6 -6 -6 -6 -7 -7 -7 -7 -7 -7 -7 -7 -7 -7 -7 -7 -7 -8 -8
-6 -6 -6 -6 -5 -5 -6 -6 -6 -6 -6 -6 -6 -6 -5 -6 -6 -6 -6 -6 -6 -6 -6 -6 -6 -6 -7 -6 -6 -7 -7 -7 -7 -7 -7 -7 -7 -7 -7 -7 -7 -7 -7 -8 -8
-6 -5 -6 -6 -5 -5 -6 -6 -6 -6 -6 -6 -6 -6 -6 -6 -6 -6 -6 -6 -6 -6 -6 -6 -6 -7 -7 -7 -7 -7 -7 -7 -7 -7 -7 -7 -7 -7 -7 -7 -7 -7 -8 -8 -8
-6 -6 -5 -5 -5 -5 -6 -6 -6 -6 -6 -6 -6 -6 -6 -6 -6 -6 -6 -6 -6 -6 -6 -6 -7 -7 -7 -7 -7 -7 -7 -7 -7 -7 -7 -7 -8 -7 -7 -7 -8 -7 -7 -8 -8
-6 -6 -5 -5 -5 -6 -6 -7 -7 -6 -6 -6 -6 -6 -7 -7 -7 -6 -7 -6 -6 -6 -7 -7 -7 -7 -7 -7 -7 -7 -8 -8 -8 -8 -7 -8 -8 -7 -8 -8 -8 -8 -8 -8 -8
-7 -6 -6 -6 -6 -6 -6 -6 -7 -7 -6 -7 -7 -7 -7 -7 -7 -6 -7 -7 -7 -7 -7 -7 -7 -7 -7 -7 -7 -8 -8 -8 -8 -8 -8 -8 -8 -8 -8 -8 -8 -8 -8 -8 -8
-7 -7 -8 -7 -7 -7 -6 -7 -8 -8 -7 -7 -8 -7 -7 -7 -6 -7 -7 -7 -7 -7 -7 -7 -7 -7 -7 -7 -7 -7 -9 -9 -9 -9 -9 -8 -8 -8 -8 -8 -8 -8 -8 -8 -8
Height
5872 5872 5873 5874 5875 5875 5876 5877 5878 5879 5881 5882 5883 5884 5885 5886 5887 5888 5889 5890 5890 5890 5890 5889 5889 5887 5885 5884 5883 5883 5883 5882 5882 5881 5881 5881 5881 5881 5882 5883 5884 5885 5885 5886 5886
5873 5874 5874 5875 5876 5877 5878 5879 5880 5881 5882 5884 5885 5886 5887 5888 5889 5890 5891 5891 5892 5892 5892 5892 5891 5890 5888 5886 5886 5885 5885 5884 5883 5883 5883 5883 5883 5883 5885 5885 5886 5887 5887 5887 5887
5874 5875 5875 5876 5877 5878 5879 5880 5881 5883 5884 5884 5885 5887 5888 5889 5891 5891 5892 5893 5893 5894 5894 5894 5893 5893 5891 5889 5889 5888 5888 5887 5887 5886 5886 5886 5886 5887 5888 5888 5889 5889 5889 5889 5889
5873 5874 5875 5876 5877 5878 5880 5881 5882 5884 5885 5886 5886 5887 5888 5890 5893 5893 5894 5894 5895 5896 5896 5895 5895 5895 5894 5893 5891 5891 5890 5889 5889 5888 5888 5889 5889 5890 5890 5891 5891 5891 5891 5891 5890
5873 5873 5875 5877 5878 5879 5880 5881 5882 5884 5885 5886 5887 5888 5889 5891 5892 5893 5894 5895 5896 5897 5897 5897 5897 5897 5896 5896 5895 5893 5893 5892 5891 5891 5892 5892 5892 5892 5892 5893 5893 5893 5892 5892 5892
5873 5874 5875 5877 5878 5880 5881 5882 5883 5884 5885 5887 5888 5888 5889 5891 5891 5893 5894 5895 5896 5897 5898 5898 5899 5898 5898 5898 5898 5897 5895 5895 5895 5894 5894 5894 5893 5894 5895 5895 5894 5893 5895 5892 5891
5874 5875 5876 5877 5878 5880 5881 5883 5884 5885 5886 5888 5887 5889 5890 5891 5891 5892 5893 5895 5896 5897 5899 5899 5899 5899 5899 5900 5899 5899 5898 5898 5897 5896 5895 5895 5895 5895 5895 5895 5895 5896 5894 5891 5892
5877 5876 5876 5876 5877 5879 5881 5883 5884 5886 5887 5888 5888 5890 5890 5891 5891 5892 5893 5895 5896 5897 5899 5899 5899 5899 5900 5900 5900 5900 5900 5899 5899 5898 5897 5897 5896 5896 5896 5896 5896 5894 5893 5892 5893
5879 5879 5878 5878 5878 5879 5881 5883 5885 5886 5888 5889 5890 5891 5892 5892 5892 5892 5893 5894 5896 5897 5899 5899 5900 5900 5900 5901 5901 5901 5901 5900 5900 5900 5899 5898 5897 5896 5896 5896 5895 5893 5892 5893 5892
5881 5882 5881 5880 5880 5880 5881 5883 5885 5887 5889 5890 5891 5893 5893 5894 5894 5894 5894 5895 5896 5897 5898 5899 5900 5901 5901 5901 5901 5901 5901 5901 5900 5900 5899 5899 5898 5897 5896 5896 5894 5893 5892 5891 5891
5883 5884 5884 5884 5883 5883 5883 5884 5888 5889 5890 5891 5892 5892 5893 5894 5895 5895 5896 5896 5897 5898 5899 5899 5900 5900 5900 5900 5900 5901 5901 5901 5900 5900 5899 5898 5898 5897 5896 5896 5894 5892 5892 5891 5890
5885 5885 5886 5886 5886 5886 5887 5887 5888 5891 5891 5892 5893 5894 5894 5895 5896 5897 5897 5898 5898 5899 5899 5900 5900 5900 5899 5900 5900 5900 5900 5900 5900 5899 5899 5897 5896 5895 5895 5894 5893 5891 5891 5891 5889
5885 5886 5887 5888 5889 5889 5889 5890 5891 5892 5893 5894 5894 5895 5896 5897 5897 5898 5899 5899 5899 5899 5900 5900 5901 5900 5900 5900 5899 5899 5899 5899 5898 5897 5897 5896 5895 5893 5893 5892 5891 5890 5889 5889 5887
5885 5886 5887 5888 5890 5890 5891 5892 5893 5893 5895 5896 5896 5898 5898 5898 5899 5899 5900 5901 5900 5901 5901 5901 5901 5901 5901 5901 5901 5900 5899 5899 5898 5897 5896 5895 5894 5892 5892 5891 5889 5888 5886 5885 5884
5884 5885 5886 5887 5889 5890 5892 5892 5893 5894 5896 5898 5898 5898 5898 5900 5901 5901 5901 5901 5902 5902 5903 5903 5902 5902 5902 5902 5901 5901 5900 5899 5898 5897 5896 5895 5894 5892 5890 5889 5887 5885 5883 5881 5879
5881 5883 5885 5886 5887 5889 5890 5891 5893 5895 5895 5897 5898 5898 5899 5899 5900 5900 5901 5902 5902 5902 5902 5903 5902 5902 5902 5902 5901 5900 5900 5899 5898 5896 5895 5893 5893 5892 5889 5888 5886 5883 5881 5878 5875
5879 5880 5882 5885 5886 5887 5889 5891 5893 5892 5895 5896 5896 5897 5898 5899 5899 5900 5900 5901 5902 5903 5902 5902 5902 5902 5902 5902 5901 5900 5899 5898 5898 5895 5893 5891 5891 5889 5887 5885 5883 5881 5878 5875 5872
5873 5877 5879 5880 5883 5884 5886 5889 5890 5891 5892 5894 5895 5896 5897 5898 5899 5899 5899 5900 5901 5901 5901 5901 5901 5901 5901 5901 5901 5900 5899 5897 5896 5894 5892 5889 5888 5887 5884 5882 5880 5877 5875 5872 5868
5867 5870 5874 5876 5878 5880 5883 5886 5887 5889 5890 5891 5893 5894 5895 5896 5897 5898 5898 5899 5899 5900 5901 5900 5900 5900 5900 5899 5899 5898 5898 5897 5895 5893 5892 5889 5886 5883 5881 5879 5877 5875 5872 5868 5864
5860 5863 5867 5870 5873 5875 5878 5881 5884 5886 5887 5889 5890 5892 5893 5894 5895 5896 5897 5898 5898 5898 5898 5899 5899 5899 5899 5899 5898 5897 5897 5896 5893 5892 5890 5887 5884 5880 5878 5875 5873 5871 5869 5865 5861
5850 5855 5859 5863 5866 5869 5874 5877 5878 5881 5884 5886 5887 5888 5890 5891 5892 5893 5894 5895 5895 5896 5896 5897 5897 5898 5897 5896 5896 5895 5894 5892 5890 5888 5885 5885 5880 5877 5874 5872 5869 5865 5862 5860 5858
5841 5845 5850 5854 5858 5863 5868 5871 5873 5875 5877 5880 5882 5885 5886 5887 5888 5889 5891 5892 5892 5893 5893 5893 5893 5893 5894 5893 5892 5892 5890 5888 5887 5886 5882 5880 5879 5873 5871 5868 5864 5862 5858 5854 5851
5828 5835 5839 5844 5848 5854 5859 5864 5865 5868 5871 5874 5876 5879 5881 5882 5884 5885 5886 5888 5889 5889 5890 5890 5890 5889 5888 5890 5889 5888 5886 5884 5883 5880 5879 5876 5873 5868 5866 5863 5860 5857 5853 5849 5845
5817 5822 5826 5832 5839 5846 5850 5854 5856 5860 5863 5867 5870 5872 5874 5876 5877 5879 5880 5882 5883 5885 5885 5886 5886 5884 5883 5884 5884 5883 5882 5879 5878 5876 5875 5871 5873 5865 5862 5857 5855 5853 5849 5844 5839
5803 5808 5818 5824 5832 5837 5841 5845 5847 5851 5854 5858 5862 5865 5867 5868 5869 5872 5874 5874 5876 5878 5879 5880 5880 5879 5877 5876 5877 5877 5876 5874 5873 5869 5866 5867 5862 5856 5856 5853 5849 5846 5842 5838 5834
5791 5799 5807 5815 5820 5824 5828 5835 5838 5841 5846 5850 5854 5856 5856 5858 5862 5862 5865 5868 5868 5870 5870 5871 5872 5872 5871 5870 5868 5871 5869 5866 5866 5865 5861 5857 5857 5851 5849 5845 5842 5839 5835 5831 5826
5779 5789 5795 5802 5805 5811 5821 5827 5830 5830 5836 5838 5843 5845 5847 5851 5851 5855 5856 5858 5860 5861 5861 5862 5862 5862 5862 5863 5861 5862 5864 5861 5861 5857 5854 5851 5848 5844 5842 5838 5833 5831 5826 5823 5819
Wind_Speed
9 10 10 11 13 13 14 14 13 13 12 13 14 14 14 13 13 13 12 12 11 11 12 13 15 18 17 13 11 10 10 9 8 8 7 6 7 10 14 15 15 14 12 11 10
8 9 10 11 11 12 12 12 12 11 11 12 12 12 13 12 11 11 11 11 9 9 9 10 13 17 19 13 12 11 10 9 9 9 9 10 12 15 15 15 14 13 10 9 8
8 8 9 10 11 11 11 12 11 10 10 10 11 11 12 12 11 10 10 10 9 8 9 9 10 14 18 18 12 12 12 11 11 12 11 11 12 15 15 14 12 10 8 7 6
10 10 9 10 10 11 11 10 10 10 9 9 9 10 10 11 11 10 9 8 8 6 7 9 9 12 15 19 16 13 13 12 12 11 10 10 10 12 12 10 9 7 4 3 2
9 10 10 10 11 12 12 12 11 10 9 9 8 8 9 10 8 10 9 7 6 4 5 7 8 10 12 15 20 15 14 12 11 11 9 7 7 8 9 7 5 4 3 1 2
11 11 9 9 10 11 12 12 13 12 10 9 7 7 7 7 6 9 9 7 6 4 2 4 7 8 9 11 14 18 16 13 11 9 8 6 5 5 4 4 4 4 2 3 4
9 8 8 9 9 11 12 12 12 12 11 11 9 8 7 4 6 6 8 7 6 4 3 3 5 7 7 8 8 11 12 14 16 10 6 5 3 2 1 2 3 4 4 5 5
14 12 9 8 9 11 13 13 12 11 12 11 8 8 6 5 6 6 7 7 6 4 4 4 4 5 5 6 6 6 7 8 10 12 12 6 3 2 2 2 4 5 7 6 6
13 14 14 13 12 13 14 16 14 12 12 11 9 8 7 6 6 6 6 6 6 5 4 3 3 2 3 4 4 4 5 5 5 6 8 10 8 5 4 4 5 6 8 8 9
11 13 14 15 16 16 16 17 18 16 13 12 9 7 7 7 7 9 8 6 6 5 3 2 2 1 0 1 2 3 3 4 4 4 4 4 5 5 6 6 6 7 7 8 9
9 10 12 14 16 18 19 18 17 16 13 11 10 9 9 7 7 8 9 9 8 7 5 3 2 1 1 1 2 2 3 3 4 5 6 6 5 5 6 6 7 8 8 9 8
10 11 11 11 13 15 18 20 19 18 16 13 11 10 9 9 9 9 10 9 9 8 8 7 6 6 4 3 2 3 3 4 5 5 7 8 9 9 9 9 10 12 12 12 11
10 10 11 12 11 13 15 17 18 18 17 16 16 15 13 13 12 12 12 12 12 12 12 12 10 9 8 7 6 6 5 5 5 6 7 7 10 11 11 12 14 15 16 16 17
10 11 11 12 12 12 13 14 15 16 16 16 15 15 16 15 15 14 14 13 13 13 12 12 11 10 9 9 8 8 8 7 7 7 7 9 11 11 13 14 15 17 18 19 20
15 12 13 13 13 13 13 13 13 15 15 12 12 14 14 14 14 13 13 12 12 10 9 9 8 7 7 7 7 7 7 8 9 8 8 8 10 12 13 13 14 16 17 19 21
20 17 15 15 15 15 14 14 14 13 11 12 11 10 11 11 11 11 10 10 9 8 7 6 5 5 5 5 5 7 7 8 9 10 10 11 11 11 13 13 14 16 16 18 18
24 22 21 18 17 16 15 15 14 12 12 12 12 10 10 9 9 9 8 8 6 6 5 5 4 3 3 4 5 7 7 7 8 9 12 13 15 16 16 17 18 18 19 18 19
27 26 24 24 21 18 16 16 15 14 14 13 12 12 12 10 9 8 7 6 5 4 3 3 1 1 2 2 4 5 6 7 8 10 12 14 14 18 19 20 19 20 20 20 21
32 29 28 27 26 24 21 16 15 13 14 14 13 12 11 10 10 9 8 7 5 4 3 2 2 1 2 2 4 4 5 8 8 10 11 13 18 19 19 19 21 20 19 20 22
36 35 34 31 30 29 27 22 19 18 17 15 15 13 12 11 10 10 10 7 6 5 4 4 3 3 3 4 8 8 9 10 11 12 13 15 20 24 23 25 26 25 22 22 23
40 39 38 37 35 33 28 26 26 24 23 20 19 18 16 14 13 13 12 12 9 7 6 5 5 6 6 6 8 9 11 13 15 19 21 20 26 28 30 30 32 32 32 30 27
44 42 41 40 39 36 33 31 30 30 28 26 24 23 22 20 18 17 16 14 13 11 10 9 10 11 10 11 12 12 14 17 18 19 23 26 28 33 35 35 36 36 36 37 34
50 45 45 43 42 39 36 33 37 35 33 31 29 27 27 25 24 23 22 20 18 18 16 15 15 17 18 18 17 18 19 21 21 24 24 26 32 36 36 35 35 35 38 39 37
55 53 51 47 44 39 39 38 41 39 37 34 32 31 30 28 28 27 27 25 23 22 21 20 20 23 25 22 21 20 21 23 23 27 27 30 23 32 36 38 35 36 39 41 41
62 59 55 51 45 41 42 41 42 41 40 38 35 33 32 33 32 30 28 29 27 25 24 23 24 26 28 28 25 24 25 26 25 28 31 29 33 38 37 38 39 41 42 43 43
68 63 58 54 52 50 48 45 44 43 41 38 36 35 38 38 35 36 33 31 31 29 29 30 29 29 30 31 32 27 27 31 28 29 36 35 32 38 39 40 41 44 46 46 46
69 66 62 60 58 57 51 47 46 47 44 44 41 41 40 39 38 36 34 32 32 33 34 34 34 34 36 35 37 35 28 32 34 34 35 37 39 41 41 41 45 45 46 47 47
Wind_Direction
118 112 133 130 129 128 126 124 125 127 129 131 135 140 139 134 124 118 114 106 100 93 82 71 61 51 54 68 79 84 91 97 102 103 103 110 112 119 123 126 130 130 127 112 98
132 129 133 145 142 139 136 131 130 131 132 139 145 147 149 146 139 126 118 110 101 94 85 74 65 57 56 65 69 76 83 90 91 92 99 111 120 128 132 137 139 135 125 108 90
163 144 135 135 152 152 149 144 143 137 131 140 152 156 156 160 154 141 129 117 106 94 86 77 69 61 58 55 65 68 75 76 76 79 91 106 124 135 140 141 138 133 119 100 80
182 173 153 143 141 154 161 159 154 147 146 143 145 156 164 163 168 161 146 127 110 95 83 77 77 72 62 57 57 66 65 69 70 75 85 104 127 147 148 147 141 140 126 106 71
165 166 171 161 149 144 146 157 161 159 161 159 156 155 160 167 173 175 170 158 137 118 92 81 73 71 69 64 61 69 66 69 70 73 82 103 130 151 163 171 165 173 187 257 329
164 170 162 157 162 151 146 143 143 150 158 153 155 163 163 171 181 183 181 184 181 167 133 84 75 72 70 71 70 70 74 76 72 73 81 98 127 150 173 191 214 229 305 309 316
128 155 170 167 159 157 160 149 147 149 143 134 151 148 151 165 173 177 186 184 188 184 168 138 84 73 71 69 70 72 71 71 70 68 78 85 98 114 166 232 278 312 294 289 320
97 102 112 128 154 164 152 157 157 154 145 149 145 139 133 122 138 161 176 189 185 170 147 153 124 92 77 76 71 68 65 60 59 58 56 61 60 53 26 329 321 299 293 302 328
94 91 91 100 117 133 151 159 165 156 154 150 147 139 128 110 110 122 144 170 177 172 170 160 149 106 81 64 66 60 51 51 44 44 45 54 53 42 18 359 326 304 296 307 304
101 95 89 87 94 107 125 141 161 170 161 157 153 151 142 125 112 109 107 120 157 161 168 183 184 190 118 25 21 28 26 19 12 9 13 15 23 31 31 24 357 332 319 305 306
125 109 100 95 96 101 107 117 133 154 169 168 161 148 136 126 117 107 107 106 114 122 125 105 89 55 353 305 301 322 330 337 331 339 336 331 318 305 315 323 324 323 333 336 326
147 138 124 111 108 110 115 117 120 126 133 138 141 142 133 125 119 115 112 110 110 109 104 96 86 73 62 46 8 340 312 306 299 297 301 300 303 303 304 305 300 301 304 307 307
162 157 151 139 129 124 122 125 126 128 127 128 127 124 121 119 116 111 109 107 101 97 91 86 82 76 73 68 63 53 37 11 352 327 312 298 301 303 304 302 302 303 305 305 301
172 164 163 158 152 148 144 139 137 136 134 134 130 129 127 125 120 117 114 110 104 101 96 92 87 79 74 68 63 54 44 39 31 15 356 344 325 329 333 322 315 310 306 301 298
183 182 172 166 168 165 160 157 152 148 145 147 145 144 141 135 131 128 122 116 112 108 101 100 96 88 76 68 64 52 43 34 27 23 11 354 345 351 344 341 336 327 320 313 309
196 190 185 180 175 177 178 174 171 173 171 164 164 162 158 154 149 147 139 134 130 124 115 101 85 75 69 60 50 34 26 24 18 10 357 345 344 342 342 342 338 334 333 326 319
210 201 194 191 186 186 186 187 189 189 187 185 180 178 182 174 167 160 153 145 137 133 128 116 105 96 75 65 67 57 46 36 28 9 352 342 345 342 340 340 340 338 336 332 328
216 215 205 199 197 195 196 197 194 199 197 187 191 186 185 186 184 182 172 153 140 141 145 142 137 113 104 89 68 69 55 33 29 14 1 352 348 345 342 343 345 344 338 333 326
220 219 220 212 207 205 204 204 204 203 199 200 198 201 200 199 200 198 193 183 186 192 200 212 219 296 324 348 12 24 42 24 13 10 0 347 341 341 342 343 346 348 342 334 323
222 221 223 222 220 215 214 212 214 217 217 212 208 209 211 211 214 211 211 212 211 209 208 238 262 280 304 335 344 350 350 356 347 347 353 351 338 333 335 338 342 341 336 327 322
224 226 224 225 226 227 222 220 223 223 226 224 224 221 220 223 227 230 231 230 236 238 250 270 285 296 306 325 331 334 335 341 343 341 341 350 337 338 335 338 338 337 338 337 334
225 224 227 227 228 227 227 228 231 229 230 228 230 231 231 231 233 236 240 243 248 251 253 265 282 290 292 303 308 313 314 318 323 327 331 338 340 332 333 332 334 334 334 336 335
223 224 225 227 231 229 225 225 233 232 233 233 233 234 237 236 238 241 245 246 250 255 260 269 275 280 285 290 296 302 307 308 314 314 319 324 329 328 331 329 329 329 330 331 333
223 224 225 226 228 228 228 225 231 234 237 236 237 237 239 241 243 245 248 251 252 256 261 266 271 274 280 284 289 293 298 301 307 307 310 312 319 313 322 324 325 325 325 326 326
224 225 228 229 230 225 226 227 231 235 238 239 239 241 242 243 246 249 251 256 259 261 263 263 265 271 277 283 286 290 293 293 301 301 306 308 312 310 315 319 322 324 323 322 323
226 226 226 227 229 226 223 226 229 231 236 238 237 236 239 241 244 247 250 254 258 261 263 265 268 271 273 278 283 284 291 292 297 298 304 303 306 306 309 312 316 319 321 321 322
228 229 227 228 228 230 231 227 228 229 230 233 234 234 238 241 244 248 250 252 254 255 260 266 269 270 273 277 279 282 283 288 293 294 295 300 302 304 306 311 313 316 317 317 318